sat.trackr.live / text

‹ back to catalog

KUIPER-00218

NORAD 67780 · 2026-030S

PAYLOAD ACTIVE UNKNOWN

§ Identity

Operator
Country
US
Launch date
2026-02-12
Launch site
FRGUI
Launch vehicle
Mass (kg)
RCS (m²)

External: N2YO · Heavens-Above · Gunter

§ Orbital elements

Epoch: 2026-05-25T05:30:47.206656Z

Period
97.53 min
Inclination
51.8969°
Eccentricity
0.0000877
Mean motion
14.76461305 rev/d
Perigee alt
639.9 km
Apogee alt
641.1 km
Semi-major
7,018.7 km
B*
2.6164e-4
RAAN
226.7110°
Arg perigee
92.2213°
Mean anomaly
267.8848°
Rev number
1,662

§ Raw data

KUIPER-002181 67780U 26030S   26145.22971304  .00001623  00000+0  26164-3 0  99982 67780  51.8969 226.7110 0000877  92.2213 267.8848 14.76461305 16623

JSON: /api/v1/satellites/67780 · /tle

For live sub-satellite position, see the globe view (requires WebGL).

§ Visibility from observer

Set your observer location to see the next 7 days of passes ≥ 10°. The values pass through the URL so the page stays shareable.

No JS? Fill the form by hand. The geolocation button needs JavaScript.